TimeEST,TemperatureF,Dew PointF,Humidity,Sea Level PressureIn,VisibilityMPH,Wind Direction,Wind SpeedMPH,Gust SpeedMPH,PrecipitationIn,Events,Conditions,WindDirDegrees,DateUTC
12:15 AM,42.8,42.8,100,30.01,10.0,NNW,3.5,-,N/A,,Drizzle,340,2012-12-10 05:15:00
12:35 AM,42.8,42.8,100,29.99,10.0,Calm,Calm,-,N/A,Rain,Light Rain,0,2012-12-10 05:35:00
12:55 AM,42.8,42.8,100,29.98,10.0,NNE,4.6,-,N/A,,Light Drizzle,30,2012-12-10 05:55:00
1:15 AM,42.8,42.8,100,29.97,7.0,NNE,3.5,-,N/A,,Overcast,20,2012-12-10 06:15:00
1:35 AM,42.8,42.8,100,29.96,7.0,Calm,Calm,-,N/A,,Overcast,0,2012-12-10 06:35:00
1:55 AM,42.8,42.8,100,29.95,3.0,Calm,Calm,-,N/A,,Drizzle,0,2012-12-10 06:55:00
2:15 AM,42.8,42.8,100,29.94,3.0,Calm,Calm,-,N/A,,Overcast,0,2012-12-10 07:15:00
2:35 AM,42.8,42.8,100,29.93,4.0,Calm,Calm,-,N/A,,Overcast,0,2012-12-10 07:35:00
2:55 AM,42.8,42.8,100,29.92,3.0,Calm,Calm,-,N/A,,Overcast,0,2012-12-10 07:55:00
3:15 AM,42.8,42.8,100,29.91,2.5,Calm,Calm,-,N/A,,Overcast,0,2012-12-10 08:15:00
3:35 AM,42.8,42.8,100,29.89,1.8,Calm,Calm,-,N/A,,Overcast,0,2012-12-10 08:35:00
3:55 AM,42.8,42.8,100,29.88,1.2,Calm,Calm,-,N/A,,Overcast,0,2012-12-10 08:55:00
4:15 AM,42.8,42.8,100,29.87,1.2,Calm,Calm,-,N/A,,Overcast,0,2012-12-10 09:15:00
4:35 AM,42.8,42.8,100,29.86,1.0,Calm,Calm,-,N/A,,Overcast,0,2012-12-10 09:35:00
4:55 AM,42.8,42.8,100,29.86,1.0,Calm,Calm,-,N/A,,Overcast,0,2012-12-10 09:55:00
5:15 AM,42.8,42.8,100,29.85,0.8,Calm,Calm,-,N/A,,Overcast,0,2012-12-10 10:15:00
5:35 AM,42.8,42.8,100,29.84,0.8,Calm,Calm,-,N/A,,Overcast,0,2012-12-10 10:35:00
6:45 AM,42.8,42.8,100,29.83,0.8,Calm,Calm,-,N/A,,Overcast,0,2012-12-10 11:45:00
7:00 AM,42.8,42.8,100,29.82,0.2,Calm,Calm,-,N/A,Fog,Fog,0,2012-12-10 12:00:00
7:45 AM,42.8,42.8,100,29.82,0.2,Calm,Calm,-,N/A,Fog,Fog,0,2012-12-10 12:45:00
8:45 AM,44.6,42.8,93,29.80,0.1,Calm,Calm,-,N/A,Fog,Fog,0,2012-12-10 13:45:00
9:13 AM,44.6,44.6,100,29.80,0.2,Calm,Calm,-,N/A,Fog,Fog,0,2012-12-10 14:13:00
9:45 AM,44.6,44.6,100,29.79,0.8,Calm,Calm,-,N/A,,Mist,0,2012-12-10 14:45:00
10:45 AM,44.6,44.6,100,29.75,0.5,Calm,Calm,-,N/A,Fog,Fog,0,2012-12-10 15:45:00
11:45 AM,48.2,48.2,100,29.71,0.8,Calm,Calm,-,N/A,,Overcast,0,2012-12-10 16:45:00
12:45 PM,50.0,50.0,100,29.67,0.8,Calm,Calm,-,N/A,,Overcast,0,2012-12-10 17:45:00
1:45 PM,53.6,53.6,100,29.65,0.8,Calm,Calm,-,N/A,Fog,Fog,0,2012-12-10 18:45:00
2:45 PM,55.4,55.4,100,29.62,1.0,SW,3.5,-,N/A,Fog,Fog,230,2012-12-10 19:45:00
3:45 PM,57.2,55.4,94,29.61,4.0,West,4.6,-,N/A,,Overcast,270,2012-12-10 20:45:00
4:45 PM,55.4,53.6,94,29.57,3.0,East,3.5,-,N/A,,Overcast,100,2012-12-10 21:45:00
5:45 PM,55.4,55.4,100,29.58,7.0,WSW,4.6,-,N/A,,Overcast,250,2012-12-10 22:45:00
6:45 PM,53.6,53.6,100,29.57,4.0,South,3.5,-,N/A,,Overcast,180,2012-12-10 23:45:00
7:45 PM,53.6,51.8,94,29.58,4.0,Calm,Calm,-,N/A,,Overcast,0,2012-12-11 00:45:00
8:45 PM,51.8,51.8,100,29.56,4.0,Calm,Calm,-,N/A,,Overcast,0,2012-12-11 01:45:00
9:45 PM,53.6,53.6,100,29.58,3.0,WSW,5.8,-,N/A,,Overcast,240,2012-12-11 02:45:00
9:55 PM,51.8,51.8,100,29.57,2.0,Calm,Calm,-,N/A,,Overcast,0,2012-12-11 02:55:00
10:15 PM,51.8,51.8,100,29.57,3.0,SSW,3.5,-,N/A,,Overcast,210,2012-12-11 03:15:00
10:35 PM,53.6,53.6,100,29.57,2.5,SSW,3.5,-,N/A,,Overcast,200,2012-12-11 03:35:00
10:55 PM,53.6,53.6,100,29.57,3.0,SSW,3.5,-,N/A,,Overcast,210,2012-12-11 03:55:00
11:15 PM,53.6,53.6,100,29.57,3.0,SW,4.6,-,N/A,,Overcast,230,2012-12-11 04:15:00
11:35 PM,53.6,53.6,100,29.58,4.0,West,3.5,-,N/A,,Overcast,260,2012-12-11 04:35:00
11:55 PM,48.2,48.2,100,29.60,10.0,NNW,11.5,23.0,N/A,,Overcast,330,2012-12-11 04:55:00